Home   Weather   Township of Washington   Past weeks
Flag for USA

Past Weather in Township of Washington, Indiana, USA — Yesterday and Last 2 Weeks

Now
21 °F

Clear.


Feels Like: 21 °F
Forecast: 35 / 20 °F
Wind: No wind

Location: Delaware County-Johnson Field

Current Time: Feb 19, 2019 at 4:07:47 am

Latest Report: Feb 19, 2019 at 2:53 am


Visibility: 10 mi

Pressure: 30.57 "Hg

Humidity: 74%

Dew Point: 14 °F

Location of Township of WashingtonLocation

Past Weather in Township of Washington — Graph

°F

Township of Washington Temperature Yesterday

Maximum temperature yesterday: 30 °F (at 2:53 am)
Minimum temperature yesterday: 22 °F (at 11:53 pm)
Average temperature yesterday: 29 °F

High & Low Weather Summary for the Past Weeks

 TemperatureHumidityPressure
High61 °F (Feb 7, 4:53 pm)97% (Feb 6, 1:53 am)30.90 "Hg (Feb 6, 1:53 am)
Low11 °F (Feb 9, 6:53 am)51% (Feb 14, 5:53 am)29.55 "Hg (Feb 12, 12:37 pm)
Average34 °F80%30.02 "Hg
* Reported Feb 4 2:53 am — Feb 19 2:53 am, Township of Washington. Weather by CustomWeather, © 2019

Note: Actual official high and low records may vary slightly from our data, if they occured in-between our weather recording intervals... More about our weather records

Advertising

Township of Washington Weather History for the Previous 24 Hours

Scroll right to see more
 ConditionsComfort  
Time TempWeatherWind HumidityBarometerVisibility
2:53 am
Tue, Feb 19
21 °FClear.No wind74%30.57 "Hg10 mi
1:53 am21 °FClear.No wind74%30.55 "Hg10 mi
12:53 am22 °FClear.5 mph75%30.55 "Hg10 mi
11:53 pm
Mon, Feb 18
22 °FClear.5 mph75%30.54 "Hg10 mi
10:53 pm23 °FClear.6 mph74%30.54 "Hg10 mi
9:53 pm25 °FClear.6 mph69%30.54 "Hg10 mi
8:53 pm27 °FOvercast.6 mph69%30.51 "Hg10 mi
7:53 pm26 °FPassing clouds.3 mph71%30.49 "Hg10 mi
6:53 pm28 °FOvercast.7 mph66%30.46 "Hg10 mi
5:53 pm29 °FOvercast.13 mph69%30.42 "Hg10 mi
5:08 pm29 °FMore clouds than sun.8 mph69%30.38 "Hg10 mi
3:53 pm30 °FMore clouds than sun.9 mph66%30.36 "Hg10 mi
2:53 pm29 °FOvercast.10 mph69%30.33 "Hg10 mi
1:53 pm30 °FMostly cloudy.14 mph69%30.31 "Hg10 mi
12:53 pm29 °FMostly cloudy.13 mph72%30.29 "Hg9 mi
11:53 am29 °FOvercast.14 mph75%30.26 "Hg9 mi
10:53 am29 °FLight snow. Overcast.10 mph82%30.22 "Hg3 mi
10:38 am29 °FLight snow. Mostly cloudy.10 mph82%30.19 "Hg2 mi
10:10 am29 °FLight snow. Ice fog.8 mph85%30.17 "Hg4 mi
9:53 am29 °FLight snow. Ice fog.9 mph85%30.17 "Hg4 mi
9:31 am29 °FLight snow. Ice fog.12 mph85%30.14 "Hg6 mi
9:23 am29 °FIce fog.8 mph85%30.14 "Hg6 mi
8:43 am29 °FLight snow. Ice fog.8 mph85%30.11 "Hg2 mi
8:10 am30 °FLight snow. Ice fog.9 mph85%30.08 "Hg2 mi
8:06 am30 °FLight snow. Ice fog.8 mph85%30.08 "Hg3 mi
6:53 am30 °FLight snow. Ice fog.9 mph85%30.05 "Hg3 mi
6:25 am30 °FLight snow. Ice fog.8 mph85%30.02 "Hg5 mi
6:16 am30 °FLight snow. Ice fog.8 mph85%30.02 "Hg6 mi
6:08 am30 °FLight snow. Mostly cloudy.8 mph82%30.01 "Hg6 mi
5:53 am30 °FLight snow. Mostly cloudy.9 mph82%30.02 "Hg5 mi
5:24 am30 °FLight snow. Overcast.12 mph82%29.99 "Hg6 mi
5:06 am30 °FLight snow. Mostly cloudy.13 mph85%29.98 "Hg7 mi
4:53 am30 °FLight snow. Overcast.10 mph85%29.99 "Hg8 mi
4:30 am30 °FOvercast.10 mph85%29.96 "Hg9 mi
4:21 am30 °FMostly cloudy.12 mph89%29.96 "Hg8 mi
4:15 am30 °FLight freezing rain. Ice fog.10 mph89%29.96 "Hg5 mi
Weather by CustomWeather, © 2019

See weather overview